Torna al catalogo

GRIFON-4

AttivoScienzaSSO
NORAD 67277·PAYLOAD·🇷🇺 Russia
Questo nome del satellite non è ancora stato confermato da fonti ufficiali.

Lanciato Dec 28, 2025 da Vostochny Cosmodrome

Loading…

Prossimi Passaggi (prossime 24 ore)

TLE

AggiornatoSource: Space-Track

Epoca: Sep 14, 2026, 10:33 UTC

1 67277U 25313AF  26257.43987447  .00005011  00000-0  21201-3 0  9997
2 67277  97.3837 330.5528 0014667  58.1167 302.1495 15.23555135 39535

Traccia GRIFON-4 in tempo reale con AllMySat

Download on the App Store